SCP
0 0 0 0 0 0 0 0 0 0 0 0 0 0 0 0 0 0 0 0 0 0 0 0 0 0 0 0 0 0 0 0 0 0 0 0 0 0 0 0 0 0 0 0
0 0 0 0 0 0 0 0 0 0 0 0 0 -0 0 0 0 0 0 0 0 0 0 0 0 0 0 0 0 0 0 0 0 0 0 0 0 0 0 0 0 0 0 0
0 0 0 0 0 0 0 0 0 0 0 0 0 -0 -0 0 0 0 0 0 0 0 0 0 0 0 0 0 0 0 0 0 0 0 0 0 0 0 0 0 0 0 0 0
0 0 0 0 0 0 0 0 0 0 0 0 0 -0 -0 0 0 0 0 0 0 0 0 0 0 0 0 0 0 0 0 0 0 0 0 0 0 0 0 0 0 0 0 0
0 0 0 0 0 0 0 0 0 0 0 0 0 0 -0 -0 -0 -0 -0 0 0 0 0 0 0 0 0 0 0 0 0 0 0 0 0 0 0 0 0 0 0 0 0 0
0 0 0 0 0 0 0 0 0 0 0 0 0 0 -0 0 -0 0 0 0 0 0 0 0 0 0 0 0 0 0 0 0 0 0 0 0 0 0 0 0 0 0 0 0
0 0 0 0 0 0 0 0 0 0 0 0 0 0 0 0 0 0 0 0 0 0 0 0 0 0 0 0 0 0 0 0 0 0 0 0 0 0 0 0 0 0 0 0
0 0 0 0 0 0 0 0 0 0 0 0 0 0 0 0 0 0 0 0 0 0 0 0 0 0 0 0 0 0 0 0 0 0 0 0 0 0 0 0 0 0 0 0
0 0 0 0 0 0 0 0 0 0 0 0 0 0 0 0 0 0 0 0 0 0 0 0 0 0 0 0 0 0 0 0 0 0 0 0 0 0 0 0 0 0 0 0
0 0 0 0 0 0 0 0 0 0 0 0 0 0 0 0 0 0 -0 -0 0 0 0 0 0 0 0 0 0 0 0 0 0 0 0 0 0 0 0 0 0 0 0 0
0 0 0 0 0 0 0 0 0 0 0 0 0 0 0 0 0 0 0 0 0 0 0 0 0 0 0 0 0 0 0 0 0 0 0 0 0 0 0 0 0 0 0 0
0 0 0 0 0 0 0 0 0 0 0 0 0 0 0 0 0 0 0 0 0 0 0 0 0 0 0 0 0 0 0 0 0 0 0 0 0 0 0 0 0 0 0 0
0 0 0 0 0 0 0 0 0 0 0 0 0 0 0 0 0 0 0 0 0 0 -0 0 0 0 0 0 0 0 0 0 0 0 0 0 0 0 0 0 0 0 0 0
0 0 0 0 0 0 0 0 0 0 0 0 0 0 0 0 0 0 0 0 0 0 0 0 0 0 0 0 -0 -0 0 0 0 0 0 0 0 0 0 0 0 0 0 0
0 0 0 0 0 0 0 0 0 0 0 0 0 0 0 0 0 0 -0 0 0 0 0 0 0 0 0 0 0 0 0 0 0 0 0 0 0 0 0 0 0 0 0 0
0 0 0 0 0 0 0 0 0 0 0 0 0 0 0 0 0 0 0 0 0 0 0 0 0 0 0 0 0 0 0 0 0 0 0 0 0 0 0 0 0 0 0 0
0 0 0 0 0 0 0 0 0 0 0 0 0 0 0 0 0 0 0 0 0 0 0 0 0 -0 -0 -0 0 0 0 0 0 0 0 0 0 0 0 0 0 0 0 0
0 0 0 0 0 0 0 0 0 0 0 0 0 0 0 0 0 0 0 0 0 0 0 0 0 0 -0 -0 -0 0 0 0 0 0 0 0 0 0 0 0 0 0 0 0
0 0 0 0 0 0 0 0 0 0 0 0 0 0 0 0 0 0 0 0 0 0 0 0 0 0 0 0 0 0 0 0 0 0 0 0 0 0 0 0 0 0 0 0
0 0 0 0 0 0 0 0 0 0 0 0 0 0 0 0 0 0 0 0 0 0 0 0 0 0 0 0 0 0 0 0 0 0 0 0 0 0 0 0 0 0 0 0
0 0 0 0 0 0 0 0 0 0 0 0 0 0 0 0 0 0 0 0 0 0 0 0 0 0 -0 -0 -0 0 0 0 0 0 0 0 0 0 0 0 0 0 0 0
0 0 0 0 0 0 0 0 0 0 0 0 0 0 0 0 0 0 0 0 0 0 0 0 0 0 0 0 0 0 0 -0 -0 -0 -0 0 0 0 0 0 0 0 0 0
0 0 0 0 0 0 0 0 0 0 0 0 0 0 0 0 0 0 0 0 0 0 0 0 0 0 0 0 -0 0 0 0 0 0 0 0 0 0 0 0 0 0 0 0
0 0 0 0 0 0 0 0 0 0 0 0 0 0 0 0 0 0 0 0 0 0 0 0 0 0 0 0 0 0 0 0 0 0 0 0 0 0 0 0 0 0 0 0
0 0 0 0 0 0 0 0 0 0 0 0 0 -0 0 0 0 0 0 0 0 0 0 0 0 0 0 0 0 0 0 0 0 0 0 0 0 0 0 0 0 0 0 0
0 0 0 0 0 0 0 0 0 0 0 0 0 0 0 0 0 0 0 0 0 0 0 0 0 0 0 0 0 0 0 0 0 0 0 0 0 0 0 0 0 0 0 0
Wind_Speed_500mb
12 8 12 20 16 12 6 3 5 9 9 10 16 19 21 42 42 57 69 65 66 69 57 52 48 54 59 63 71 77 86 89 86 86 84 81 85 86 82 80 70 68 67 68
8 10 20 16 9 11 5 1 8 10 5 6 12 25 22 26 39 62 63 75 81 75 66 59 59 62 68 67 67 78 85 90 91 89 87 93 92 90 84 81 75 71 71 69
15 11 28 13 8 9 5 8 7 11 5 7 9 15 17 10 23 37 49 59 68 73 63 58 57 60 63 74 70 72 79 87 91 89 88 93 97 96 94 92 85 79 77 74
13 17 8 11 12 13 7 5 8 9 4 7 4 14 13 16 22 16 59 69 70 55 50 49 47 63 59 74 71 71 72 79 85 87 88 92 102 106 108 104 96 83 86 87
14 14 13 15 11 11 11 5 7 6 5 8 6 6 15 12 14 24 41 52 47 38 34 38 37 36 57 50 67 69 69 73 81 86 91 91 95 103 102 99 94 88 85 91
12 6 9 16 4 7 17 12 14 11 6 9 16 15 6 10 12 10 11 9 13 14 16 22 31 34 35 38 58 62 61 66 76 85 91 92 92 95 95 94 90 85 83 88
7 8 6 9 13 12 10 14 1 4 2 15 10 8 13 13 15 8 7 13 17 18 17 19 25 30 33 34 42 54 61 66 70 76 84 85 86 84 87 89 89 86 84 86
19 11 19 14 17 19 16 16 12 16 9 10 9 14 9 13 15 10 19 17 15 23 20 17 17 14 22 33 42 51 53 55 59 65 73 76 78 80 82 83 84 83 80 76
13 12 6 6 10 20 12 14 11 5 3 5 9 15 16 18 17 32 49 65 51 21 19 22 25 26 30 35 40 41 44 46 50 55 60 66 71 75 78 79 78 77 74 73
8 7 5 2 7 2 12 12 4 2 5 8 10 12 14 18 19 19 23 40 37 22 25 21 23 25 23 22 22 27 33 34 38 46 53 58 62 67 71 74 75 74 70 69
10 8 2 7 12 20 6 7 7 9 10 10 5 12 12 10 5 10 19 24 20 9 12 17 20 16 14 12 11 14 19 22 27 32 39 45 51 56 62 69 72 71 67 66
10 10 9 13 8 12 6 15 12 9 8 9 6 25 5 13 10 26 22 21 17 12 15 12 11 11 10 11 10 9 11 14 15 19 24 31 38 46 53 60 64 66 67 65
12 4 6 5 5 7 8 9 14 4 6 18 10 18 5 17 25 48 39 43 39 30 25 18 12 11 9 10 12 15 21 22 21 21 21 27 36 44 51 54 57 61 61 62
12 3 9 13 7 7 11 3 5 10 8 14 32 42 24 29 20 35 32 31 38 42 48 40 32 24 19 11 14 26 33 35 36 35 36 42 46 44 51 53 56 59 60 63
8 9 8 9 3 4 6 10 12 14 8 12 18 26 7 10 16 19 24 29 23 33 39 37 40 38 38 42 45 44 43 44 49 52 54 60 58 54 53 58 59 59 61 64
5 7 7 4 12 15 17 28 20 21 18 24 31 47 40 38 40 20 28 27 24 23 29 31 36 35 32 34 38 41 40 41 49 54 61 62 65 65 65 64 62 60 60 64
10 11 8 7 11 8 14 38 33 21 13 32 24 13 9 12 17 24 26 29 30 35 37 38 36 37 42 45 45 43 42 45 48 51 56 59 61 69 71 71 69 66 64 63
11 10 4 6 8 10 11 5 22 33 17 24 5 9 12 8 12 24 36 41 45 44 44 46 46 47 47 48 50 54 54 50 49 53 55 56 56 63 69 73 73 73 67 66
9 7 7 7 6 10 12 9 15 16 14 0 12 8 13 18 7 10 39 45 44 43 43 51 52 50 50 52 53 54 54 56 56 52 51 52 54 57 61 67 70 71 69 68
8 7 6 7 10 16 10 10 3 15 4 10 19 11 12 17 6 7 46 45 45 44 44 50 53 55 54 56 56 56 55 56 58 59 54 50 52 56 59 60 63 65 66 66
9 10 25 9 7 15 13 9 10 11 8 22 17 14 16 7 5 30 40 46 43 44 47 52 54 57 57 59 61 61 59 54 55 56 55 53 48 49 51 53 57 58 61 63
17 15 10 7 5 19 11 7 11 9 27 29 16 17 19 24 32 39 44 48 51 50 51 56 60 59 55 55 60 61 60 60 58 54 55 58 53 50 47 47 50 53 55 58
6 13 11 15 11 4 23 38 37 36 31 19 19 27 32 34 43 52 56 54 53 53 54 56 60 60 54 52 59 67 65 64 61 61 58 53 55 52 44 44 45 47 49 54
6 7 7 10 6 13 29 40 24 20 20 22 28 27 32 44 52 50 47 56 66 69 70 66 67 64 63 60 64 68 70 70 65 65 64 61 54 48 46 43 42 44 46 50
7 11 10 2 8 17 31 11 10 21 29 33 31 27 24 31 39 46 62 73 75 75 75 78 76 77 74 69 65 64 65 68 69 69 67 62 56 50 44 40 36 38 37 40
11 10 8 7 16 9 8 7 22 30 32 36 42 45 39 42 53 62 74 78 75 73 73 76 81 81 80 76 73 68 64 65 66 66 68 62 57 52 45 40 34 29 32 35
Wind_Direction_500mb
187 110 185 205 197 203 176 177 220 262 209 153 224 253 262 272 278 275 272 267 263 259 260 249 247 249 244 237 230 231 228 229 228 225 226 222 222 226 230 233 232 226 224 224
63 203 217 211 206 201 173 252 256 300 166 148 263 265 253 250 256 261 265 270 267 268 264 256 253 250 242 240 236 231 233 233 232 232 229 226 226 231 230 232 232 230 225 228
160 218 207 182 174 160 204 170 235 222 330 291 301 287 272 276 251 274 271 265 269 266 266 262 253 248 246 236 239 236 236 238 235 237 232 229 227 233 235 235 236 230 234 232
211 227 112 171 201 145 221 182 217 251 25 243 122 286 288 273 271 276 274 270 267 272 267 265 258 245 245 241 236 238 239 240 238 237 237 234 233 231 235 238 239 234 226 232
231 175 179 200 203 152 200 157 156 176 178 348 273 252 267 263 285 252 258 269 276 280 273 261 250 253 245 247 237 237 239 241 240 239 241 240 239 239 241 243 243 241 235 231
175 150 161 189 70 163 147 81 37 35 62 273 201 206 253 204 213 279 282 285 258 272 278 242 231 230 237 237 227 231 237 243 244 244 244 244 242 243 242 243 242 240 238 233
161 198 138 128 76 16 114 106 339 329 345 239 303 245 228 281 219 214 289 275 262 243 232 229 230 226 231 235 232 235 239 241 242 244 246 248 249 248 248 248 247 244 241 238
180 253 160 185 179 175 192 161 164 195 202 262 323 244 245 232 268 287 296 297 274 237 244 221 208 220 243 240 240 239 243 246 243 244 246 249 251 251 251 252 251 250 248 247
164 240 152 147 145 152 203 213 173 53 86 23 233 289 288 274 257 269 273 273 267 262 247 259 262 270 261 256 256 252 250 249 247 247 246 247 249 251 252 255 255 254 253 250
183 134 344 67 100 1 153 164 94 13 162 246 255 263 237 298 276 295 282 277 290 276 262 268 273 279 267 262 251 246 248 248 248 247 247 248 250 253 255 256 254 253 253 252
175 126 306 124 200 170 142 181 195 141 157 179 274 258 228 224 4 20 31 43 23 318 279 282 287 264 244 233 244 250 252 252 252 256 257 258 257 255 255 256 257 254 254 253
196 143 158 195 254 209 186 193 164 146 236 225 171 254 106 118 96 59 31 19 18 349 309 286 253 237 254 275 281 285 281 280 269 266 268 269 268 264 261 260 259 259 257 255
188 203 90 30 353 345 191 187 212 226 90 222 147 253 93 91 51 32 16 12 1 352 342 317 292 284 294 307 324 327 315 303 285 273 282 289 286 276 270 266 262 257 255 253
90 107 165 209 131 121 160 130 96 170 184 236 233 271 269 316 352 358 5 353 359 9 3 338 321 310 311 318 338 338 328 311 300 291 286 290 287 285 281 272 266 262 256 252
112 173 191 204 59 85 188 223 228 207 210 211 246 279 105 291 308 319 8 5 342 334 335 341 357 347 324 309 314 325 318 308 299 289 288 286 279 271 272 273 270 265 258 254
168 129 136 242 189 197 231 234 231 234 232 234 245 254 269 291 288 324 358 7 354 347 347 340 328 328 328 325 308 293 289 295 295 289 291 292 285 277 272 272 271 269 262 255
144 137 144 235 147 122 272 224 205 208 193 214 230 269 13 44 32 31 32 36 25 19 6 359 353 341 329 317 311 310 300 288 283 286 288 290 289 280 275 273 272 268 264 258
136 126 112 156 109 206 246 132 196 200 194 212 212 80 68 10 10 89 34 13 3 359 356 357 354 347 345 342 330 314 305 300 298 298 296 293 288 283 278 273 271 269 266 262
136 131 129 175 205 300 289 213 158 165 210 219 123 103 22 7 113 156 4 354 352 349 346 343 342 341 341 338 333 329 320 312 305 303 297 295 291 284 278 273 272 270 268 265
158 90 145 164 163 210 246 284 226 117 225 189 134 106 34 38 66 295 348 348 341 339 340 338 337 335 332 334 331 331 332 326 316 306 297 289 287 284 279 277 273 270 267 265
181 184 215 176 220 280 239 270 333 113 221 168 122 89 53 65 354 331 339 345 341 337 337 333 328 326 328 328 327 327 327 329 325 317 309 299 287 282 280 276 269 267 264 260
169 168 196 145 158 259 190 61 151 149 94 108 77 36 23 354 345 343 337 335 336 335 332 334 328 324 325 325 321 321 321 320 319 316 315 309 301 290 281 274 270 266 261 256
203 183 175 170 203 153 105 112 112 107 93 59 21 357 350 338 333 330 328 325 324 324 326 327 330 324 323 326 325 321 318 317 316 313 307 302 299 293 284 273 267 263 260 255
263 161 133 106 226 130 131 122 90 42 28 357 345 346 336 324 324 320 317 317 317 314 313 312 312 315 316 319 318 319 320 319 317 314 308 304 295 287 282 274 266 260 255 254
188 122 155 76 131 114 129 99 11 341 332 327 328 334 333 319 311 310 311 315 315 310 309 308 306 304 302 307 312 315 313 314 315 317 310 301 294 286 278 269 262 260 259 255
180 164 159 200 147 131 164 327 313 315 319 316 315 312 311 309 308 307 305 307 307 306 306 305 304 302 298 297 298 305 307 306 306 310 307 298 291 284 275 264 254 248 251 244
Wind_Speed_850mb
12 8 12 20 16 12 6 3 5 9 9 10 16 19 21 42 42 57 69 65 66 69 57 52 48 54 59 63 71 77 86 89 86 86 84 81 85 86 82 80 70 68 67 68
8 10 20 16 9 11 5 1 8 10 5 6 12 25 22 26 39 62 63 75 81 75 66 59 59 62 68 67 67 78 85 90 91 89 87 93 92 90 84 81 75 71 71 69
15 11 28 13 8 9 5 8 7 11 5 7 9 15 17 10 23 37 49 59 68 73 63 58 57 60 63 74 70 72 79 87 91 89 88 93 97 96 94 92 85 79 77 74
13 17 8 11 12 13 7 5 8 9 4 7 4 14 13 16 22 16 59 69 70 55 50 49 47 63 59 74 71 71 72 79 85 87 88 92 102 106 108 104 96 83 86 87
14 14 13 15 11 11 11 5 7 6 5 8 6 6 15 12 14 24 41 52 47 38 34 38 37 36 57 50 67 69 69 73 81 86 91 91 95 103 102 99 94 88 85 91
12 6 9 16 4 7 17 12 14 11 6 9 16 15 6 10 12 10 11 9 13 14 16 22 31 34 35 38 58 62 61 66 76 85 91 92 92 95 95 94 90 85 83 88
7 8 6 9 13 12 10 14 1 4 2 15 10 8 13 13 15 8 7 13 17 18 17 19 25 30 33 34 42 54 61 66 70 76 84 85 86 84 87 89 89 86 84 86
19 11 19 14 17 19 16 16 12 16 9 10 9 14 9 13 15 10 19 17 15 23 20 17 17 14 22 33 42 51 53 55 59 65 73 76 78 80 82 83 84 83 80 76
13 12 6 6 10 20 12 14 11 5 3 5 9 15 16 18 17 32 49 65 51 21 19 22 25 26 30 35 40 41 44 46 50 55 60 66 71 75 78 79 78 77 74 73
8 7 5 2 7 2 12 12 4 2 5 8 10 12 14 18 19 19 23 40 37 22 25 21 23 25 23 22 22 27 33 34 38 46 53 58 62 67 71 74 75 74 70 69
10 8 2 7 12 20 6 7 7 9 10 10 5 12 12 10 5 10 19 24 20 9 12 17 20 16 14 12 11 14 19 22 27 32 39 45 51 56 62 69 72 71 67 66
10 10 9 13 8 12 6 15 12 9 8 9 6 25 5 13 10 26 22 21 17 12 15 12 11 11 10 11 10 9 11 14 15 19 24 31 38 46 53 60 64 66 67 65
12 4 6 5 5 7 8 9 14 4 6 18 10 18 5 17 25 48 39 43 39 30 25 18 12 11 9 10 12 15 21 22 21 21 21 27 36 44 51 54 57 61 61 62
12 3 9 13 7 7 11 3 5 10 8 14 32 42 24 29 20 35 32 31 38 42 48 40 32 24 19 11 14 26 33 35 36 35 36 42 46 44 51 53 56 59 60 63
8 9 8 9 3 4 6 10 12 14 8 12 18 26 7 10 16 19 24 29 23 33 39 37 40 38 38 42 45 44 43 44 49 52 54 60 58 54 53 58 59 59 61 64
5 7 7 4 12 15 17 28 20 21 18 24 31 47 40 38 40 20 28 27 24 23 29 31 36 35 32 34 38 41 40 41 49 54 61 62 65 65 65 64 62 60 60 64
10 11 8 7 11 8 14 38 33 21 13 32 24 13 9 12 17 24 26 29 30 35 37 38 36 37 42 45 45 43 42 45 48 51 56 59 61 69 71 71 69 66 64 63
11 10 4 6 8 10 11 5 22 33 17 24 5 9 12 8 12 24 36 41 45 44 44 46 46 47 47 48 50 54 54 50 49 53 55 56 56 63 69 73 73 73 67 66
9 7 7 7 6 10 12 9 15 16 14 0 12 8 13 18 7 10 39 45 44 43 43 51 52 50 50 52 53 54 54 56 56 52 51 52 54 57 61 67 70 71 69 68
8 7 6 7 10 16 10 10 3 15 4 10 19 11 12 17 6 7 46 45 45 44 44 50 53 55 54 56 56 56 55 56 58 59 54 50 52 56 59 60 63 65 66 66
9 10 25 9 7 15 13 9 10 11 8 22 17 14 16 7 5 30 40 46 43 44 47 52 54 57 57 59 61 61 59 54 55 56 55 53 48 49 51 53 57 58 61 63
17 15 10 7 5 19 11 7 11 9 27 29 16 17 19 24 32 39 44 48 51 50 51 56 60 59 55 55 60 61 60 60 58 54 55 58 53 50 47 47 50 53 55 58
6 13 11 15 11 4 23 38 37 36 31 19 19 27 32 34 43 52 56 54 53 53 54 56 60 60 54 52 59 67 65 64 61 61 58 53 55 52 44 44 45 47 49 54
6 7 7 10 6 13 29 40 24 20 20 22 28 27 32 44 52 50 47 56 66 69 70 66 67 64 63 60 64 68 70 70 65 65 64 61 54 48 46 43 42 44 46 50
7 11 10 2 8 17 31 11 10 21 29 33 31 27 24 31 39 46 62 73 75 75 75 78 76 77 74 69 65 64 65 68 69 69 67 62 56 50 44 40 36 38 37 40
11 10 8 7 16 9 8 7 22 30 32 36 42 45 39 42 53 62 74 78 75 73 73 76 81 81 80 76 73 68 64 65 66 66 68 62 57 52 45 40 34 29 32 35
Wind_Direction_850mb
187 110 185 205 197 203 176 177 220 262 209 153 224 253 262 272 278 275 272 267 263 259 260 249 247 249 244 237 230 231 228 229 228 225 226 222 222 226 230 233 232 226 224 224
63 203 217 211 206 201 173 252 256 300 166 148 263 265 253 250 256 261 265 270 267 268 264 256 253 250 242 240 236 231 233 233 232 232 229 226 226 231 230 232 232 230 225 228
160 218 207 182 174 160 204 170 235 222 330 291 301 287 272 276 251 274 271 265 269 266 266 262 253 248 246 236 239 236 236 238 235 237 232 229 227 233 235 235 236 230 234 232
211 227 112 171 201 145 221 182 217 251 25 243 122 286 288 273 271 276 274 270 267 272 267 265 258 245 245 241 236 238 239 240 238 237 237 234 233 231 235 238 239 234 226 232
231 175 179 200 203 152 200 157 156 176 178 348 273 252 267 263 285 252 258 269 276 280 273 261 250 253 245 247 237 237 239 241 240 239 241 240 239 239 241 243 243 241 235 231
175 150 161 189 70 163 147 81 37 35 62 273 201 206 253 204 213 279 282 285 258 272 278 242 231 230 237 237 227 231 237 243 244 244 244 244 242 243 242 243 242 240 238 233
161 198 138 128 76 16 114 106 339 329 345 239 303 245 228 281 219 214 289 275 262 243 232 229 230 226 231 235 232 235 239 241 242 244 246 248 249 248 248 248 247 244 241 238
180 253 160 185 179 175 192 161 164 195 202 262 323 244 245 232 268 287 296 297 274 237 244 221 208 220 243 240 240 239 243 246 243 244 246 249 251 251 251 252 251 250 248 247
164 240 152 147 145 152 203 213 173 53 86 23 233 289 288 274 257 269 273 273 267 262 247 259 262 270 261 256 256 252 250 249 247 247 246 247 249 251 252 255 255 254 253 250
183 134 344 67 100 1 153 164 94 13 162 246 255 263 237 298 276 295 282 277 290 276 262 268 273 279 267 262 251 246 248 248 248 247 247 248 250 253 255 256 254 253 253 252
175 126 306 124 200 170 142 181 195 141 157 179 274 258 228 224 4 20 31 43 23 318 279 282 287 264 244 233 244 250 252 252 252 256 257 258 257 255 255 256 257 254 254 253
196 143 158 195 254 209 186 193 164 146 236 225 171 254 106 118 96 59 31 19 18 349 309 286 253 237 254 275 281 285 281 280 269 266 268 269 268 264 261 260 259 259 257 255
188 203 90 30 353 345 191 187 212 226 90 222 147 253 93 91 51 32 16 12 1 352 342 317 292 284 294 307 324 327 315 303 285 273 282 289 286 276 270 266 262 257 255 253
90 107 165 209 131 121 160 130 96 170 184 236 233 271 269 316 352 358 5 353 359 9 3 338 321 310 311 318 338 338 328 311 300 291 286 290 287 285 281 272 266 262 256 252
112 173 191 204 59 85 188 223 228 207 210 211 246 279 105 291 308 319 8 5 342 334 335 341 357 347 324 309 314 325 318 308 299 289 288 286 279 271 272 273 270 265 258 254
168 129 136 242 189 197 231 234 231 234 232 234 245 254 269 291 288 324 358 7 354 347 347 340 328 328 328 325 308 293 289 295 295 289 291 292 285 277 272 272 271 269 262 255
144 137 144 235 147 122 272 224 205 208 193 214 230 269 13 44 32 31 32 36 25 19 6 359 353 341 329 317 311 310 300 288 283 286 288 290 289 280 275 273 272 268 264 258
136 126 112 156 109 206 246 132 196 200 194 212 212 80 68 10 10 89 34 13 3 359 356 357 354 347 345 342 330 314 305 300 298 298 296 293 288 283 278 273 271 269 266 262
136 131 129 175 205 300 289 213 158 165 210 219 123 103 22 7 113 156 4 354 352 349 346 343 342 341 341 338 333 329 320 312 305 303 297 295 291 284 278 273 272 270 268 265
158 90 145 164 163 210 246 284 226 117 225 189 134 106 34 38 66 295 348 348 341 339 340 338 337 335 332 334 331 331 332 326 316 306 297 289 287 284 279 277 273 270 267 265
181 184 215 176 220 280 239 270 333 113 221 168 122 89 53 65 354 331 339 345 341 337 337 333 328 326 328 328 327 327 327 329 325 317 309 299 287 282 280 276 269 267 264 260
169 168 196 145 158 259 190 61 151 149 94 108 77 36 23 354 345 343 337 335 336 335 332 334 328 324 325 325 321 321 321 320 319 316 315 309 301 290 281 274 270 266 261 256
203 183 175 170 203 153 105 112 112 107 93 59 21 357 350 338 333 330 328 325 324 324 326 327 330 324 323 326 325 321 318 317 316 313 307 302 299 293 284 273 267 263 260 255
263 161 133 106 226 130 131 122 90 42 28 357 345 346 336 324 324 320 317 317 317 314 313 312 312 315 316 319 318 319 320 319 317 314 308 304 295 287 282 274 266 260 255 254
188 122 155 76 131 114 129 99 11 341 332 327 328 334 333 319 311 310 311 315 315 310 309 308 306 304 302 307 312 315 313 314 315 317 310 301 294 286 278 269 262 260 259 255
180 164 159 200 147 131 164 327 313 315 319 316 315 312 311 309 308 307 305 307 307 306 306 305 304 302 298 297 298 305 307 306 306 310 307 298 291 284 275 264 254 248 251 244